{"data":{"norad_id":64099,"epoch":"2026-05-25T00:15:04.539744Z","epoch_age_seconds":77216,"freshness":"FRESH","line1":"1 64099U 25110D   26145.01046921  .00013004  00000+0  45032-3 0  9992","line2":"2 64099  53.1617  32.5395 0001206  83.4989 276.6149 15.30207317 57567","mean_motion":15.30207317,"eccentricity":0.0001206,"inclination_deg":53.1617,"raan_deg":32.5395,"arg_perigee_deg":83.4989,"mean_anomaly_deg":276.6149,"bstar":0.00045032,"rev_number":5756,"period_min":94.10489572244,"perigee_km":474.36671063847,"apogee_km":476.01973388808,"semimajor_km":6853.3302222633,"source":"CELESTRAK","updated_at":"2026-05-25T13:38:20.263829Z"}}